Location: Niedergestelen
(46.3129°N, 7.7822°E)
Time: 12:25:31
(UTC+00:00)

Cosmos 2056 Rocket - Pass Details

Date: 01 December 2020
Orbit: 741 x 801 km, 74.0° (Epoch: 26 January)

Event Time Altitude Azimuth Distance (km) Brightness Sun altitude
Rises 18:03:14 0° 341° (NNW) 3,250 6.9 -23.3°
Reaches altitude 10° 18:05:40 10° 346° (NNW) 2,329 6.1 -23.7°
Enters shadow 18:09:30 42° 18° (NNE) 1,103 4.1 -24.4°
